Location: Brachbach
(49.1847°N, 9.7240°E)
Time: 21:17:15
(UTC+00:00)

Cosmos 2219 Rocket - Pass Details

Date: 14 August 2024
Orbit: 826 x 846 km, 71.0° (Epoch: 09 September)

Event Time Altitude Azimuth Distance (km) Brightness Sun altitude
Exits shadow 22:48:20 23° 90° (E) 1,727 3.7 -26.3°
Drops below altitude 10° 22:51:59 10° 51° (NE) 2,478 5.0 -26.4°
Sets 22:54:52 0° 38° (NE) 3,419 6.0 -26.5°
